• In Czech Republic
  • List of Countries
  • For 7 days
  • Water Temperature
  • Satellite Maps
  • Weather Map
  • Weather Widgets
  • user-avatar
    Login

    Hourly Weather Río Gallegos

    Today, 20 October, Saturday

    Time Temperature Precipitation Wind Pressure Humidity
    00:00 +6°C° 0 mm 4 mps 763 mmHg 72%
    01:00 +6°C° 0 mm 4 mps 763 mmHg 74%
    02:00 +7°C° 0 mm 3 mps 762 mmHg 75%
    03:00 +7°C° 0 mm 3 mps 761 mmHg 76%
    04:00 +7°C° 0 mm 3 mps 761 mmHg 77%
    05:00 +8°C° 0 mm 3 mps 760 mmHg 72%
    06:00 +10°C° 0 mm 3 mps 760 mmHg 67%
    07:00 +11°C° 0 mm 3 mps 759 mmHg 62%
    08:00 +13°C° 0 mm 3 mps 759 mmHg 57%
    09:00 +14°C° 0 mm 3 mps 758 mmHg 53%
    10:00 +17°C° 0 mm 3 mps 758 mmHg 48%
    11:00 +18°C° 0 mm 4 mps 757 mmHg 46%
    12:00 +18°C° 0 mm 4 mps 756 mmHg 45%
    13:00 +19°C° 0 mm 4 mps 756 mmHg 43%
    14:00 +18°C° 0 mm 4 mps 755 mmHg 46%
    15:00 +17°C° 0 mm 4 mps 754 mmHg 49%
    16:00 +15°C° 0 mm 4 mps 754 mmHg 52%
    17:00 +15°C° 0 mm 4 mps 754 mmHg 56%
    18:00 +14°C° 0 mm 3 mps 754 mmHg 60%
    19:00 +13°C° 0 mm 3 mps 754 mmHg 64%
    20:00 +12°C° 0.2 mm 4 mps 754 mmHg 64%
    21:00 +10°C° 0.2 mm 5 mps 754 mmHg 64%
    22:00 +10°C° 0.2 mm 7 mps 754 mmHg 64%
    23:00 +9°C° 0.5 mm 7 mps 755 mmHg 65%

    Tomorrow, 21 October, Sunday

    Time Temperature Precipitation Wind Pressure Humidity
    00:00 +7°C° 0.5 mm 8 mps 755 mmHg 66%
    01:00 +5°C° 0.5 mm 8 mps 755 mmHg 67%
    02:00 +5°C° 0.4 mm 8 mps 755 mmHg 72%
    03:00 +5°C° 0.4 mm 9 mps 756 mmHg 78%
    04:00 +5°C° 0.4 mm 9 mps 756 mmHg 84%
    05:00 +5°C° 0.2 mm 9 mps 757 mmHg 83%
    06:00 +5°C° 0.2 mm 10 mps 757 mmHg 82%
    07:00 +3°C° 0.2 mm 10 mps 758 mmHg 81%
    08:00 +3°C° 0 mm 9 mps 758 mmHg 77%
    09:00 +5°C° 0 mm 9 mps 759 mmHg 73%
    10:00 +5°C° 0 mm 8 mps 759 mmHg 69%
    11:00 +5°C° 0 mm 8 mps 760 mmHg 65%
    12:00 +5°C° 0 mm 7 mps 760 mmHg 62%
    13:00 +7°C° 0 mm 6 mps 760 mmHg 59%
    14:00 +7°C° 0 mm 5 mps 760 mmHg 58%
    15:00 +7°C° 0 mm 4 mps 760 mmHg 58%
    16:00 +8°C° 0 mm 3 mps 760 mmHg 57%
    17:00 +7°C° 0 mm 3 mps 761 mmHg 60%
    18:00 +7°C° 0 mm 2 mps 761 mmHg 62%
    19:00 +6°C° 0 mm 2 mps 761 mmHg 65%
    20:00 +6°C° 0 mm 2 mps 761 mmHg 67%
    21:00 +4°C° 0 mm 3 mps 761 mmHg 70%
    22:00 +4°C° 0 mm 3 mps 762 mmHg 72%
    23:00 +4°C° 0 mm 4 mps 762 mmHg 72%

    Day after tomorrow, 22 October, Monday

    Time Temperature Precipitation Wind Pressure Humidity
    00:00 +4°C° 0 mm 4 mps 762 mmHg 72%
    01:00 +4°C° 0 mm 4 mps 762 mmHg 72%
    02:00 +4°C° 0 mm 4 mps 762 mmHg 72%
    03:00 +2°C° 0 mm 5 mps 762 mmHg 72%
    04:00 +2°C° 0 mm 5 mps 763 mmHg 71%
    05:00 +2°C° 0 mm 5 mps 763 mmHg 69%
    06:00 +3°C° 0 mm 6 mps 764 mmHg 67%
    07:00 +3°C° 0 mm 6 mps 764 mmHg 64%
    08:00 +5°C° 0 mm 6 mps 764 mmHg 58%
    09:00 +7°C° 0 mm 6 mps 764 mmHg 52%
    10:00 +8°C° 0 mm 6 mps 764 mmHg 46%
    11:00 +9°C° 0 mm 5 mps 764 mmHg 45%
    12:00 +10°C° 0 mm 5 mps 764 mmHg 45%
    13:00 +12°C° 0 mm 4 mps 764 mmHg 44%
    14:00 +12°C° 0 mm 4 mps 764 mmHg 45%
    15:00 +12°C° 0 mm 4 mps 764 mmHg 45%
    16:00 +12°C° 0 mm 3 mps 764 mmHg 46%
    17:00 +11°C° 0 mm 3 mps 764 mmHg 50%
    18:00 +10°C° 0 mm 3 mps 765 mmHg 54%
    19:00 +10°C° 0 mm 3 mps 765 mmHg 59%
    20:00 +9°C° 0 mm 3 mps 765 mmHg 61%
    21:00 +8°C° 0 mm 3 mps 765 mmHg 64%
    22:00 +8°C° 0 mm 3 mps 766 mmHg 67%
    23:00 +7°C° 0 mm 2 mps 766 mmHg 69%

    23 October, Tuesday

    Time Temperature Precipitation Wind Pressure Humidity
    00:00 +7°C° 0 mm 2 mps 765 mmHg 71%
    01:00 +6°C° 0 mm 2 mps 765 mmHg 73%
    02:00 +7°C° 0 mm 1 mps 765 mmHg 74%
    03:00 +7°C° 0 mm 1 mps 765 mmHg 75%
    04:00 +6°C° 0 mm 1 mps 765 mmHg 76%
    05:00 +7°C° 0 mm 1 mps 765 mmHg 71%
    06:00 +9°C° 0 mm 1 mps 765 mmHg 66%
    07:00 +10°C° 0 mm 1 mps 765 mmHg 61%
    08:00 +11°C° 0 mm 1 mps 765 mmHg 57%
    09:00 +12°C° 0 mm 2 mps 764 mmHg 52%
    10:00 +13°C° 0 mm 2 mps 764 mmHg 48%
    11:00 +13°C° 0 mm 3 mps 764 mmHg 47%
    12:00 +14°C° 0 mm 3 mps 763 mmHg 45%
    13:00 +15°C° 0 mm 4 mps 763 mmHg 44%
    14:00 +14°C° 0 mm 4 mps 762 mmHg 46%
    15:00 +14°C° 0 mm 5 mps 762 mmHg 48%
    16:00 +14°C° 0 mm 5 mps 761 mmHg 50%
    17:00 +13°C° 0 mm 6 mps 761 mmHg 54%
    18:00 +11°C° 0 mm 6 mps 762 mmHg 58%
    19:00 +10°C° 0 mm 6 mps 762 mmHg 62%
    20:00 +10°C° 0 mm 6 mps 762 mmHg 63%
    21:00 +9°C° 0 mm 6 mps 762 mmHg 65%
    22:00 +9°C° 0 mm 5 mps 762 mmHg 66%
    23:00 +9°C° 0 mm 5 mps 761 mmHg 69%

    24 October, Wednesday

    Time Temperature Precipitation Wind Pressure Humidity
    00:00 +8°C° 0 mm 4 mps 761 mmHg 71%
    01:00 +8°C° 0 mm 4 mps 761 mmHg 73%
    02:00 +8°C° 0 mm 4 mps 761 mmHg 75%
    03:00 +8°C° 0 mm 4 mps 761 mmHg 76%
    04:00 +7°C° 0 mm 4 mps 761 mmHg 78%
    05:00 +8°C° 0 mm 5 mps 761 mmHg 75%
    06:00 +9°C° 0 mm 5 mps 761 mmHg 72%
    07:00 +9°C° 0 mm 5 mps 762 mmHg 68%
    08:00 +10°C° 0 mm 6 mps 762 mmHg 66%
    09:00 +11°C° 0 mm 6 mps 762 mmHg 63%
    10:00 +13°C° 0 mm 6 mps 762 mmHg 60%
    11:00 +12°C° 0 mm 7 mps 761 mmHg 61%
    12:00 +12°C° 0 mm 7 mps 761 mmHg 62%
    13:00 +12°C° 0 mm 8 mps 761 mmHg 64%
    14:00 +12°C° 0.1 mm 7 mps 761 mmHg 69%
    15:00 +11°C° 0.1 mm 7 mps 761 mmHg 74%
    16:00 +10°C° 0.1 mm 7 mps 761 mmHg 79%
    17:00 +9°C° 0.3 mm 7 mps 761 mmHg 82%
    18:00 +8°C° 0.3 mm 7 mps 762 mmHg 86%
    19:00 +8°C° 0.3 mm 7 mps 762 mmHg 89%
    20:00 +6°C° 0.6 mm 8 mps 762 mmHg 90%
    21:00 +6°C° 0.6 mm 8 mps 762 mmHg 90%
    22:00 +6°C° 0.6 mm 9 mps 762 mmHg 91%
    23:00 +6°C° 0.4 mm 8 mps 762 mmHg 91%

    25 October, Thursday

    Time Temperature Precipitation Wind Pressure Humidity
    00:00 +6°C° 0.4 mm 8 mps 762 mmHg 91%
    01:00 +6°C° 0.4 mm 8 mps 762 mmHg 91%
    02:00 +6°C° 0.1 mm 8 mps 762 mmHg 92%
    03:00 +6°C° 0.1 mm 8 mps 762 mmHg 92%
    04:00 +6°C° 0.1 mm 8 mps 762 mmHg 93%
    05:00 +6°C° 0 mm 8 mps 762 mmHg 91%
    06:00 +7°C° 0 mm 9 mps 762 mmHg 89%
    07:00 +7°C° 0 mm 9 mps 762 mmHg 87%
    08:00 +7°C° 0 mm 9 mps 762 mmHg 85%
    09:00 +8°C° 0 mm 9 mps 762 mmHg 83%
    10:00 +8°C° 0 mm 9 mps 762 mmHg 81%
    11:00 +8°C° 0 mm 9 mps 762 mmHg 81%
    12:00 +8°C° 0 mm 9 mps 761 mmHg 81%
    13:00 +8°C° 0 mm 9 mps 761 mmHg 81%
    14:00 +8°C° 0.1 mm 9 mps 761 mmHg 83%
    15:00 +7°C° 0.1 mm 9 mps 760 mmHg 84%
    16:00 +7°C° 0.1 mm 8 mps 760 mmHg 86%
    17:00 +7°C° 0.2 mm 8 mps 760 mmHg 88%
    18:00 +6°C° 0.2 mm 8 mps 759 mmHg 90%
    19:00 +6°C° 0.2 mm 7 mps 759 mmHg 91%
    20:00 +6°C° 0.1 mm 7 mps 759 mmHg 92%
    21:00 +6°C° 0.1 mm 7 mps 758 mmHg 92%
    22:00 +8°C° 0.1 mm 6 mps 758 mmHg 92%
    23:00 +8°C° 0.2 mm 6 mps 758 mmHg 93%
    Show more